Station WASD2 - 8594900 - Washington, DC Image indicating link to RSS feed of recent meteorological observations for station WASD2


Conditions at WASD2 as of
(7:54 am EDT)
1154 GMT on 04/19/2024:
     

Click on the graph icon in the table below to see a time series plot of the last five days of that observation.

5-day plot - Wind Direction Wind Direction (WDIR):ENE ( 70 deg true )
5-day plot - Wind Speed Wind Speed (WSPD): 1.0 kts
5-day plot - Wind Gust Wind Gust (GST): 4.1 kts
5-day plot - Atmospheric Pressure Atmospheric Pressure (PRES):30.12 in
5-day plot - Air Temperature Air Temperature (ATMP): 52.3 °F
5-day plot - Water Temperature Water Temperature (WTMP): 62.8 °F
5-day plot - Wind Speed at 10 Meters Wind Speed at 10 meters (WSPD10M): 1.9 kts
5-day plot - Wind Speed at 20 Meters Wind Speed at 20 meters (WSPD20M): 1.9 kts
5-day plot -  Wind Speed, Wind Gust and Atmospheric Pressure Combined plot of Wind Speed, Gust, and Air Pressure
NOS Water Level Observation Network Water Level
Previous observations
TIME
(EDT)
5-day plot - Wind Direction
WDIR
 
5-day plot - Wind Speed
WSPD
kts
5-day plot - Wind Gust
GST
kts
5-day plot - Wave Height
WVHT
ft
5-day plot - Dominant Wave Period
DPD
sec
5-day plot - Average Wave Period
APD
sec
5-day plot - Mean Wave Direction
MWD
 
5-day plot - Atmospheric Pressure
PRES
in
5-day plot - Pressure Tendency
PTDY
in
5-day plot - Air Temperature
ATMP
°F
5-day plot - Water Temperature
WTMP
°F
5-day plot - Dew Point
DEWP
°F
5-day plot - Salinity
SAL
psu
5-day plot - Visibility
VIS
nmi
5-day plot - Tide (above MLLW)
TIDE
ft
2024-04-19 07:48 am E 1.9 6.0----30.13- 52.0 62.8----
2024-04-19 07:42 amENE 1.9 7.0----30.13- 52.2 62.8----
2024-04-19 07:36 am E 4.1 7.0----30.12- 52.0 62.8----
2024-04-19 07:30 amESE 4.1 7.0----30.12- 52.0 62.8----
2024-04-19 07:24 amESE 4.1 7.0----30.12- 52.3 62.8----
2024-04-19 07:18 am SE 4.1 5.1----30.12- 52.5 62.8----
2024-04-19 07:12 amESE 4.1 7.0----30.12- 52.3 62.8----
2024-04-19 07:06 amESE 2.9 5.1----30.12- 52.7 62.8----
2024-04-19 07:00 amESE 4.1 8.0----30.12+0.02 52.5 62.8----
2024-04-19 06:54 am E 4.1 8.0----30.11- 52.7 62.8----
2024-04-19 06:48 amESE 1.9 6.0----30.11- 53.1 62.8----
2024-04-19 06:42 am E 2.9 6.0----30.11- 53.1 62.8----
2024-04-19 06:36 amENE 1.9 8.0----30.11- 53.2 62.8----
2024-04-19 06:30 amENE 2.9 5.1----30.10- 53.2 62.8----
2024-04-19 06:24 am E 4.1 8.9----30.11- 53.1 62.8----
2024-04-19 06:18 amESE 2.9 5.1----30.10- 53.2 62.8----
2024-04-19 06:12 amESE 1.9 7.0----30.11- 53.1 62.8----
2024-04-19 06:06 amESE 2.9 6.0----30.11- 53.2 62.8----
2024-04-19 06:00 amESE 5.1 8.0----30.10+0.00 53.2 62.8----
2024-04-19 05:54 am SE 6.0 8.0----30.10- 53.2 62.8----
2024-04-19 05:48 am E 4.1 8.0----30.10- 53.2 62.8----
2024-04-19 05:42 amENE 2.9 7.0----30.10- 53.4 62.8----
2024-04-19 05:36 am E 1.9 6.0----30.10- 53.6 62.8----
2024-04-19 05:30 amESE 2.9 8.0----30.11- 53.4 62.8----
2024-04-19 05:24 amESE 2.9 6.0----30.10- 53.4 62.8----
2024-04-19 05:18 amESE 2.9 7.0----30.11- 53.6 62.8----
2024-04-19 05:12 am SE 5.1 6.0----30.11- 53.4 62.8----
2024-04-19 05:06 am SE 5.1 7.0----30.11- 53.4 62.8----
2024-04-19 05:00 amESE 2.9 7.0----30.11+0.00 53.6 62.8----
2024-04-19 04:54 am SE 4.1 7.0----30.11- 53.6 62.8----
2024-04-19 04:48 amSSE 4.1 6.0----30.11- 53.8 62.8----
2024-04-19 04:42 am SE 4.1 6.0----30.11- 53.8 62.8----
2024-04-19 04:36 am SE 5.1 8.9----30.10- 54.0 62.8----
2024-04-19 04:30 am SE 6.0 7.0----30.10- 54.0 62.8----
2024-04-19 04:24 am SE 4.1 6.0----30.10- 54.1 62.8----
2024-04-19 04:18 am SE 5.1 7.0----30.10- 54.1 62.8----
2024-04-19 04:12 am E 4.1 6.0----30.10- 54.0 62.8----
2024-04-19 04:06 am SE 2.9 6.0----30.10- 54.1 62.8----
2024-04-19 04:00 amESE 2.9 5.1----30.10-0.03 54.0 62.8----
2024-04-19 03:54 am SE 5.1 8.9----30.09- 54.1 62.8----
2024-04-19 03:48 am E 4.1 6.0----30.09- 54.5 62.8----
2024-04-19 03:42 am- 0.0 5.1----30.10- 54.7 62.8----
2024-04-19 03:36 am SE 1.9 5.1----30.10- 54.5 62.8----
2024-04-19 03:30 amESE 2.9 6.0----30.10- 54.3 62.8----
2024-04-19 03:24 amESE 2.9 7.0----30.10- 54.5 62.8----
2024-04-19 03:18 am SE 2.9 5.1----30.10- 54.7 62.8----
2024-04-19 03:12 am E 1.9 4.1----30.10- 54.7 62.8----
2024-04-19 03:06 amESE 1.0 6.0----30.10- 54.5 62.8----
2024-04-19 03:00 amESE 1.9 5.1----30.10-0.02 54.5 62.8----
2024-04-19 02:54 am N 1.9 2.9----30.11- 54.7 62.8----
2024-04-19 02:48 am SE 1.9 5.1----30.11- 54.5 62.8----
2024-04-19 02:42 am NE 1.0 7.0----30.11- 54.7 62.8----
2024-04-19 02:36 amESE 5.1 7.0----30.11- 54.5 62.8----
2024-04-19 02:30 am E 1.9 5.1----30.11- 54.9 62.8----
2024-04-19 02:24 am E 1.9 6.0----30.12- 55.0 62.8----
2024-04-19 02:18 amESE 1.9 5.1----30.12- 55.0 62.8----
2024-04-19 02:12 amESE 4.1 6.0----30.11- 54.9 62.8----
2024-04-19 02:06 am E 1.9 6.0----30.11- 55.0 62.8----
2024-04-19 02:00 amESE 2.9 7.0----30.11+0.00 55.2 62.8----
2024-04-19 01:54 amNNE 2.9 7.0----30.12- 55.2 62.8----
2024-04-19 01:48 amESE 4.1 8.0----30.12- 55.0 62.8----
2024-04-19 01:42 am E 2.9 6.0----30.12- 55.6 62.8----
2024-04-19 01:36 amESE 5.1 7.0----30.12- 55.4 62.8----
2024-04-19 01:30 amENE 1.9 7.0----30.12- 55.9 62.8----
2024-04-19 01:24 am E 1.9 5.1----30.12- 56.1 62.8----
2024-04-19 01:18 am SE 1.9 6.0----30.12- 56.1 62.8----
2024-04-19 01:12 am SE 2.9 6.0----30.13- 56.3 62.8----
2024-04-19 01:06 amENE 2.9 5.1----30.13- 56.5 62.8----
2024-04-19 01:00 amENE 2.9 6.0----30.13+0.03 56.5 62.8----
2024-04-19 12:54 amENE 1.9 5.1----30.13- 56.7 62.8----
2024-04-19 12:48 amESE 2.9 8.0----30.13- 56.8 62.8----
2024-04-19 12:42 am E 2.9 5.1----30.13- 56.8 62.8----
2024-04-19 12:36 am NE 1.9 7.0----30.13- 56.8 62.8----
2024-04-19 12:30 amENE 2.9 6.0----30.13- 57.0 62.8----
2024-04-19 12:24 amENE 2.9 7.0----30.13- 57.0 62.8----
2024-04-19 12:18 am E 2.9 6.0----30.13- 57.0 62.8----
2024-04-19 12:12 amESE 4.1 8.0----30.12- 57.0 62.8----
2024-04-19 12:06 am E 2.9 7.0----30.12- 57.2 62.8----
2024-04-19 12:00 amESE 1.9 5.1----30.12+0.06 57.2 62.8----
2024-04-18 11:54 pmESE 5.1 7.0----30.12- 57.2 62.8----
2024-04-18 11:48 pm E 2.9 5.1----30.12- 57.4 62.8----
2024-04-18 11:42 pm E 2.9 5.1----30.12- 57.4 62.8----
2024-04-18 11:36 pmENE 2.9 5.1----30.13- 57.6 62.8----
2024-04-18 11:30 pm N 1.0 8.0----30.13- 57.7 62.8----
2024-04-18 11:24 pm E 2.9 6.0----30.12- 57.6 62.8----
2024-04-18 11:18 pmESE 5.1 8.9----30.12- 57.6 62.8----
2024-04-18 11:12 pmENE 2.9 8.0----30.12- 58.1 62.8----
2024-04-18 11:06 pm E 2.9 6.0----30.12- 58.3 62.8----
2024-04-18 11:00 pm E 4.1 8.0----30.12+0.10 58.3 62.6----
2024-04-18 10:54 pmENE 2.9 8.0----30.12- 58.8 62.6----
2024-04-18 10:48 pm E 1.0 7.0----30.11- 59.0 62.6----
2024-04-18 10:42 pm E 4.1 11.1----30.11- 59.2 62.6----
2024-04-18 10:36 pmENE 1.9 7.0----30.11- 59.4 62.6----
2024-04-18 10:30 pm E 4.1 7.0----30.11- 59.7 62.6----
2024-04-18 10:24 pm NE 1.9 6.0----30.11- 60.1 62.6----
2024-04-18 10:18 pm E 2.9 8.0----30.11- 60.4 62.6----
2024-04-18 10:12 pm E 2.9 8.0----30.11- 60.6 62.6----
2024-04-18 10:06 pmENE 1.9 5.1----30.11- 61.0 62.6----
2024-04-18 10:00 pmENE 4.1 8.0----30.10+0.11 61.2 62.6----
2024-04-18 09:54 pm E 1.9 5.1----30.10- 61.7 62.6----
2024-04-18 09:48 pm E 4.1 7.0----30.09- 61.7 62.6----
2024-04-18 09:42 pm NE 1.9 5.1----30.09- 62.1 62.6----
2024-04-18 09:36 pmENE 4.1 8.9----30.09- 62.1 62.6----
2024-04-18 09:30 pm NE 4.1 9.9----30.08- 62.4 62.6----
2024-04-18 09:24 pm E 4.1 7.0----30.08- 62.8 62.6----
2024-04-18 09:18 pm E 2.9 6.0----30.07- 63.5 62.6----
2024-04-18 09:12 pm- 0.0 8.0----30.07- 63.9 62.6----
2024-04-18 09:06 pm NE 1.9 5.1----30.07- 64.0 62.6----
2024-04-18 09:00 pmENE 2.9 6.0----30.06+0.08 64.2 62.6----
2024-04-18 08:54 pmENE 4.1 8.0----30.06- 64.4 62.6----
2024-04-18 08:48 pm NE 2.9 7.0----30.06- 64.9 62.6----
2024-04-18 08:42 pmENE 2.9 7.0----30.05- 65.3 62.6----
2024-04-18 08:36 pm NE 2.9 7.0----30.04- 65.5 62.6----
2024-04-18 08:30 pm NE 4.1 7.0----30.04- 65.8 62.4----
2024-04-18 08:24 pmENE 4.1 7.0----30.04- 65.8 62.4----
2024-04-18 08:18 pmENE 4.1 8.0----30.03- 66.2 62.4----
2024-04-18 08:12 pmENE 2.9 6.0----30.03- 66.4 62.4----
2024-04-18 08:06 pmENE 1.9 5.1----30.03- 66.6 62.4----
2024-04-18 08:00 pm- 0.0 5.1----30.02+0.04 66.7 62.4----
2024-04-18 07:54 pmENE 2.9 6.0----30.02- 66.9 62.4----
2024-04-18 07:48 pm E 2.9 8.9----30.02- 67.3 62.4----
2024-04-18 07:42 pm E 1.9 5.1----30.01- 67.6 62.2----
2024-04-18 07:36 pm E 2.9 7.0----30.01- 68.0 62.2----
2024-04-18 07:30 pm E 5.1 8.9----30.01- 68.2 62.2----
2024-04-18 07:24 pmESE 1.9 9.9----30.01- 69.1 62.2----
2024-04-18 07:00 pmENE 2.9 8.9----29.99+0.04 71.6 62.2----
2024-04-18 06:54 pm E 2.9 7.0----29.99- 71.4 62.2----
2024-04-18 06:48 pm E 5.1 9.9----29.99- 71.8 62.2----
2024-04-18 06:42 pmENE 5.1 8.9----29.99- 73.0 62.2----
2024-04-18 06:36 pm E 2.9 8.0----29.98- 73.6 62.1----
2024-04-18 06:30 pmENE 4.1 9.9----29.98- 74.3 62.2----
2024-04-18 06:24 pm E 2.9 8.9----29.98- 74.7 62.2----
2024-04-18 06:18 pm E 4.1 8.9----29.98- 75.2 62.2----
2024-04-18 06:12 pmENE 1.9 5.1----29.98- 77.5 62.1----
2024-04-18 06:06 pmNNE 4.1 9.9----29.98- 77.7 62.1----
2024-04-18 06:00 pm N 5.1 11.1----29.98+0.01- 62.1----
2024-04-18 05:54 pm N 6.0 12.0----29.98-- 62.1----
2024-04-18 05:48 pm N 7.0 13.0----29.98- 78.3 62.1----
2024-04-18 05:42 pmNNW 4.1 8.9----29.98- 78.1 61.9----
2024-04-18 05:36 pmNNW 8.0 14.0----29.98- 78.4 61.9----
2024-04-18 05:30 pmNNW 5.1 9.9----29.98- 78.8 61.9----
2024-04-18 05:24 pmNNW 5.1 8.9----29.98- 78.3 61.9----
2024-04-18 05:18 pmWNW 6.0 8.9----29.98- 77.4 61.9----
2024-04-18 05:12 pm NW 6.0 13.0----29.98- 78.1 61.9----
2024-04-18 05:06 pm NW 8.9 13.0----29.98- 77.9 61.9----
2024-04-18 05:00 pm N 2.9 12.0----29.98-0.01 79.2 61.9----
2024-04-18 04:54 pmNNW 4.1 12.0----29.98- 78.6 61.9----
2024-04-18 04:48 pm NW 4.1 8.0----29.97- 78.6 61.9----
2024-04-18 04:42 pm N 4.1 8.9----29.97- 78.1 61.9----
2024-04-18 04:36 pm NW 8.0 12.0----29.97- 77.4 61.9----
2024-04-18 04:30 pm N 6.0 11.1----29.97- 77.7 61.9----
2024-04-18 04:24 pmWNW 8.9 12.0----29.96- 76.5 61.9----
2024-04-18 04:18 pm N 8.0 13.0----29.97- 78.1 61.9----
2024-04-18 04:12 pm NW 5.1 11.1----29.96- 77.5 61.9----
2024-04-18 04:06 pmNNE 5.1 8.9----29.96- 78.1 61.9----
2024-04-18 04:00 pmNNW 5.1 9.9----29.96-0.04 77.5 61.9----
2024-04-18 03:54 pmWNW 5.1 9.9----29.96- 76.5 61.9----
2024-04-18 03:48 pm NW 5.1 11.1----29.96- 77.0 61.9----
2024-04-18 03:42 pmWNW 5.1 9.9----29.96- 76.3 61.9----
2024-04-18 03:36 pmWNW 6.0 8.9----29.96- 76.5 61.9----
2024-04-18 03:30 pmNNW 6.0 9.9----29.96- 77.2 61.9----
2024-04-18 03:24 pm NW 8.0 11.1----29.96- 76.5 61.7----
2024-04-18 03:18 pmENE 1.9 8.0----29.96- 76.3 61.7----
2024-04-18 03:12 pm N 4.1 9.9----29.96- 76.6 61.7----
2024-04-18 03:06 pm N 8.9 14.0----29.96- 77.0 61.7----
2024-04-18 03:00 pmNNE 4.1 11.1----29.96-0.03 76.1 61.9----
2024-04-18 02:54 pmWNW 7.0 13.0----29.97- 74.7 61.9----
2024-04-18 02:48 pm N 5.1 13.0----29.97- 76.3 61.9----
2024-04-18 02:42 pmNNE 5.1 9.9----29.97- 76.1 61.9----
2024-04-18 02:36 pm N 5.1 11.1----29.98- 76.6 61.9----
2024-04-18 02:30 pm NW 6.0 12.0----29.98- 75.6 61.9----
2024-04-18 02:24 pm NW 5.1 11.1----29.98- 76.1 61.9----
2024-04-18 02:18 pm N 6.0 15.9----29.98- 75.6 61.9----
2024-04-18 02:12 pm NW 8.0 11.1----29.98- 74.7 61.9----
2024-04-18 02:06 pm N 5.1 11.1----29.98- 75.6 61.9----
2024-04-18 02:00 pm NW 5.1 11.1----29.99+0.00 75.2 62.1----
2024-04-18 01:54 pm N 5.1 14.0----29.99- 75.9 62.1----
2024-04-18 01:48 pm N 8.9 15.0----29.99- 75.4 62.1----
2024-04-18 01:42 pm N 6.0 9.9----29.99- 76.1 62.1----
2024-04-18 01:36 pm N 5.1 13.0----29.99- 75.9 62.1----
2024-04-18 01:30 pm NW 5.1 8.9----29.99- 74.8 62.1----
2024-04-18 01:24 pmWNW 6.0 8.9----30.00- 74.1 62.1----
2024-04-18 01:18 pmNNE 6.0 12.0----29.99- 75.7 62.1----
2024-04-18 01:12 pm NW 5.1 11.1----29.99- 74.1 62.1----
2024-04-18 01:06 pmNNW 2.9 12.0----30.00- 74.7 62.1----
2024-04-18 01:00 pm NW 4.1 7.0----30.00+0.02 73.4 62.1----
2024-04-18 12:54 pmNNW 4.1 7.0----29.99- 73.9 62.1----
2024-04-18 12:48 pmWSW 1.9 6.0----29.99- 73.6 62.1----
2024-04-18 12:42 pm NW 5.1 8.0----30.00- 73.8 62.1----
2024-04-18 12:36 pm N 1.9 5.1----30.00- 74.1 62.1----
2024-04-18 12:30 pmNNW 2.9 8.0----30.00- 73.4 62.1----
2024-04-18 12:24 pmNNE 4.1 7.0----30.00- 72.7 62.1----
2024-04-18 12:18 pm N 4.1 8.9----30.00- 72.3 62.1----
2024-04-18 12:12 pm N 2.9 5.1----30.00- 71.2 62.1----
2024-04-18 12:06 pm NE 2.9 7.0----30.00- 71.1 62.1----
2024-04-18 12:00 pm N 2.9 8.0----30.00+0.02 71.8 62.1----
2024-04-18 11:54 amNNW 2.9 8.0----29.99- 72.1 62.1----
2024-04-18 11:48 am NW 5.1 11.1----29.99- 72.0 62.1----
2024-04-18 11:42 am NW 5.1 9.9----29.99- 71.8 62.1----
2024-04-18 11:36 amWNW 5.1 8.0----29.99- 71.8 62.1----
2024-04-18 11:30 amWNW 5.1 8.9----29.99- 72.1 61.9----
2024-04-18 11:24 am N 4.1 12.0----29.99- 72.5 61.9----
2024-04-18 11:18 amNNW 6.0 12.0----29.99- 72.5 61.9----
2024-04-18 11:12 am NW 6.0 11.1----29.98- 72.3 61.9----
2024-04-18 11:06 amNNW 7.0 11.1----29.99- 71.6 61.9----
2024-04-18 11:00 amNNW 2.9 5.1----29.99+0.01 70.3 61.9----
2024-04-18 10:54 amNNE 1.9 4.1----29.99- 69.6 61.9----
2024-04-18 10:48 am SE 1.9 5.1------------
2024-04-18 10:42 am SE 4.1 6.0------------
2024-04-18 10:36 am SE 4.1 7.0------------
2024-04-18 10:30 am S 1.9 1.9----29.98- 68.5 61.9----
2024-04-18 10:24 am S 1.9 2.9----29.98- 68.2 61.9----
2024-04-18 10:18 am- 0.0 2.9----29.98- 68.5 61.9----
2024-04-18 10:12 am- 0.0 4.1----29.98- 67.6 61.9----
2024-04-18 10:06 am SE 2.9 5.1----29.98- 66.6 61.7----
2024-04-18 10:00 amENE 1.9 4.1----29.98+0.03 67.3 61.7----
2024-04-18 09:54 am E 1.9 2.9----29.98- 66.9 61.7----
2024-04-18 09:48 am E 1.0 5.1----29.98- 66.4 61.7----
2024-04-18 09:42 am SE 1.9 4.1----29.98- 65.7 61.7----
2024-04-18 09:36 amESE 1.0 1.9----29.98- 66.0 61.7----
2024-04-18 09:30 am- 0.0 1.9----29.98- 65.1 61.7----
2024-04-18 09:24 amWSW 1.0 1.0----29.98- 64.4 61.7----
2024-04-18 09:18 am- 0.0 1.9----29.98- 64.6 61.7----
2024-04-18 09:12 am- 0.0 2.9----29.98- 64.6 61.7----
2024-04-18 09:06 amENE 1.9 4.1----29.98- 63.0 61.7----
2024-04-18 09:00 amENE 1.9 4.1----29.98+0.05 63.3 61.7----
2024-04-18 08:54 am N 2.9 4.1----29.98- 62.6 61.7----
2024-04-18 08:48 amENE 1.0 4.1----29.98- 62.1 61.7----
2024-04-18 08:42 amENE 1.9 4.1----29.98- 61.3 61.7----
2024-04-18 08:36 amENE 2.9 5.1----29.98- 61.2 61.7----
2024-04-18 08:30 amENE 2.9 4.1----29.98- 61.2 61.7----
2024-04-18 08:24 am- 0.0 1.9----29.98- 61.7 61.7----
2024-04-18 08:18 am E 1.9 2.9----29.97- 61.2 61.7----
2024-04-18 08:12 am E 1.9 2.9----29.98- 61.0 61.7----
2024-04-18 08:06 am- 0.0 1.9----29.98- 60.8 61.7----
2024-04-18 08:00 amSSW 1.0 2.9----29.98+0.07 60.6 61.7----
2024-04-18 07:54 amENE 1.9 2.9----29.97- 60.6 61.7----